Regional Weather Roundup
Issued by NWS

Home | Current Version | Previous Version | Text Only | Print | Product List | Glossary Off
Versions: 1 2 3 4 5 6 7 8 9 10 11 12 13 14 15 16 17 18 19 20 21 22 23 24 25 26 27 28 29 30 31 32 33 34 35 36 37 38 39 40 41 42 43 44 45 46 47 48 49 50

000
ASUS43 KLSX 250307
RWRMO

WEATHER SUMMARY FOR MISSOURI
NATIONAL WEATHER SERVICE SPRINGFIELD MO
1000 PM CDT SUN SEP 24 2017

NOTE: "FAIR" INDICATES FEW OR NO CLOUDS BELOW 12,000 FEET WITH NO
       SIGNIFICANT WEATHER AND/OR OBSTRUCTIONS TO VISIBILITY.
       CURRENT SKY AND/OR WEATHER CONDITIONS ARE NOT AVAILABLE FOR
       CHILLICOTHE AND FARMINGTON.

MOZ001>031-035>038-043-044-053-054-250400-
...NORTHERN AND WESTERN MISSOURI...

CITY           SKY/WX    TMP DP  RH WIND       PRES   REMARKS
KANSAS CTY INT CLEAR     75  67  76 S8        29.94R
KANSAS C DTWN  CLEAR     82  68  62 SE10      29.93R
LEE`S SUMMIT   CLEAR     78  68  71 S9        29.95S
ST JOSEPH      CLEAR     74  67  78 S8        29.92S
CHILLICOTHE      N/A     72  67  84 SE3       29.95R
KIRKSVILLE     CLEAR     73  62  68 S5        29.98R

$$
MOZ066>068-077>081-088>096-101>105-250400-
...SOUTHWEST MISSOURI...

CITY           SKY/WX    TMP DP  RH WIND       PRES   REMARKS
SPRINGFIELD    CLEAR     69  64  84 SE8       29.98S
JOPLIN         CLEAR     75  66  73 SE6       29.95S
BRANSON        PTCLDY    68  66  94 CALM      30.01S

$$
MOZ032>034-039>042-045>050-055>058-069>072-250400-
...CENTRAL MISSOURI...

CITY           SKY/WX    TMP DP  RH WIND       PRES   REMARKS
COLUMBIA       PTCLDY    79  66  64 E7        29.96F
JEFFERSON CITY PTCLDY    77  66  68 VRB3      29.96R
ROLLA          PTCLDY    73  64  73 S9        30.01R
SEDALIA        CLEAR     74  67  78 SE7       29.97F
WHITEMAN AFB   CLEAR     72  70  92 S7        29.94S
WARRENSBURG    CLEAR     73  64  73 SE10      29.95S
OSAGE BEACH    PTCLDY    70  67  90 N5        29.98S

$$
MOZ051-052-059>065-250400-
...EAST CENTRAL MISSOURI...

CITY           SKY/WX    TMP DP  RH WIND       PRES   REMARKS
ST LOUIS INTL  CLEAR     82  63  52 SW6       29.99R
SPIRIT OF STL  CLEAR     79  65  62 SW5       29.97S
ST CHARLES     PTCLDY    73  66  78 CALM      29.97R

$$
MOZ072>076-082>087-097>100-106>115-250400-
...SOUTH CENTRAL AND SOUTHEAST MISSOURI...

CITY           SKY/WX    TMP DP  RH WIND       PRES   REMARKS
CAPE GIRARDEAU PTCLDY    70  65  84 CALM      29.99S
FARMINGTON     CLEAR     71  65  81 CALM      30.02S
POPLAR BLUFF   CLEAR     68  66  93 CALM      29.99S
WEST PLAINS    CLEAR     70  63  78 E3        30.02S

$$



USA.gov is the U.S. government's official web portal to all federal, state and local government web resources and services.